| time (UTC) | temp F | wind direction | speed MPH | gust MPH | rain 1hr in | rain 24hr in | rain mn in | humidity % | barometer mb |
| 20260507183736 | 63 | 259 | 7.0 | 7.0 | 0.00 | 0.00 | 0.00 | 34 | 1018.0 |
| 20260507183236 | 62 | 266 | 3.0 | 6.0 | 0.00 | 0.00 | 0.00 | 38 | 1018.0 |
| 20260507182736 | 62 | 169 | 1.0 | 3.0 | 0.00 | 0.00 | 0.00 | 35 | 1018.0 |
| 20260507182235 | 63 | 268 | 5.0 | 7.0 | 0.00 | 0.00 | 0.00 | 35 | 1018.0 |
| 20260507181736 | 63 | 252 | 1.0 | 5.0 | 0.00 | 0.00 | 0.00 | 34 | 1018.0 |
| 20260507181236 | 63 | 256 | 2.0 | 4.0 | 0.00 | 0.00 | 0.00 | 37 | 1018.0 |
| 20260507180736 | 63 | 269 | 5.0 | 6.0 | 0.00 | 0.00 | 0.00 | 40 | 1018.0 |
| 20260507180235 | 62 | 217 | 1.0 | 5.0 | 0.00 | 0.00 | 0.00 | 35 | 1018.0 |
| 20260507175735 | 63 | 248 | 5.0 | 6.0 | 0.00 | 0.00 | 0.00 | 34 | 1019.0 |
| 20260507175236 | 63 | 240 | 2.0 | 7.0 | 0.00 | 0.00 | 0.00 | 35 | 1019.0 |
| 20260507174736 | 62 | 259 | 2.0 | 5.0 | 0.00 | 0.00 | 0.00 | 37 | 1019.0 |
| 20260507174236 | 62 | 229 | 2.0 | 5.0 | 0.00 | 0.00 | 0.00 | 34 | 1019.0 |
| 20260507173736 | 62 | 223 | 2.0 | 5.0 | 0.00 | 0.00 | 0.00 | 36 | 1019.0 |
| 20260507173236 | 62 | 250 | 3.0 | 6.0 | 0.00 | 0.00 | 0.00 | 36 | 1019.0 |
| 20260507172736 | 62 | 338 | 4.0 | 5.0 | 0.00 | 0.00 | 0.00 | 35 | 1019.0 |
| 20260507172236 | 62 | 321 | 2.0 | 4.0 | 0.00 | 0.00 | 0.00 | 35 | 1019.0 |
| 20260507171736 | 62 | 227 | 3.0 | 5.0 | 0.00 | 0.00 | 0.00 | 37 | 1019.0 |
| 20260507171235 | 62 | 273 | 3.0 | 5.0 | 0.00 | 0.00 | 0.00 | 36 | 1019.0 |
| 20260507170735 | 61 | 230 | 1.0 | 6.0 | 0.00 | 0.00 | 0.00 | 34 | 1019.0 |
| 20260507170235 | 61 | 243 | 3.0 | 3.0 | 0.00 | 0.00 | 0.00 | 35 | 1019.0 |
| 20260507165736 | 61 | 254 | 2.0 | 5.0 | 0.00 | 0.00 | 0.00 | 34 | 1019.0 |
| 20260507165235 | 60 | 227 | 2.0 | 8.0 | 0.00 | 0.00 | 0.00 | 35 | 1019.0 |
| 20260507164735 | 60 | 279 | 3.0 | 7.0 | 0.00 | 0.00 | 0.00 | 35 | 1020.0 |
| 20260507164236 | 60 | 242 | 3.0 | 3.0 | 0.00 | 0.00 | 0.00 | 40 | 1020.0 |
| 20260507163736 | 60 | 184 | 0.0 | 4.0 | 0.00 | 0.00 | 0.00 | 41 | 1020.0 |
| 20260507163236 | 60 | 235 | 2.0 | 3.0 | 0.00 | 0.00 | 0.00 | 40 | 1020.0 |
| 20260507162735 | 60 | 229 | 1.0 | 5.0 | 0.00 | 0.00 | 0.00 | 39 | 1020.0 |
| 20260507162236 | 59 | 234 | 2.0 | 4.0 | 0.00 | 0.00 | 0.00 | 39 | 1020.0 |
| 20260507161736 | 60 | 223 | 2.0 | 4.0 | 0.00 | 0.00 | 0.00 | 37 | 1020.0 |
| 20260507161236 | 60 | 242 | 3.0 | 6.0 | 0.00 | 0.00 | 0.00 | 37 | 1020.0 |
| 20260507160735 | 60 | 278 | 3.0 | 8.0 | 0.00 | 0.00 | 0.00 | 35 | 1020.0 |
| 20260507160237 | 60 | 243 | 3.0 | 5.0 | 0.00 | 0.00 | 0.00 | 38 | 1020.0 |
| 20260507155735 | 58 | 223 | 1.0 | 3.0 | 0.00 | 0.00 | 0.00 | 39 | 1020.0 |
| 20260507155238 | 57 | 217 | 0.0 | 4.0 | 0.00 | 0.00 | 0.00 | 37 | 1020.0 |
| 20260507154735 | 59 | 247 | 2.0 | 3.0 | 0.00 | 0.00 | 0.00 | 40 | 1020.0 |
| 20260507154235 | 58 | 243 | 2.0 | 3.0 | 0.00 | 0.00 | 0.00 | 37 | 1020.0 |
| 20260507153736 | 59 | 266 | 2.0 | 5.0 | 0.00 | 0.00 | 0.00 | 34 | 1020.0 |
| 20260507153236 | 60 | 282 | 5.0 | 5.0 | 0.00 | 0.00 | 0.00 | 44 | 1020.0 |
| 20260507152735 | 59 | 287 | 3.0 | 5.0 | 0.00 | 0.00 | 0.00 | 40 | 1020.0 |
| 20260507152235 | 58 | 200 | 1.0 | 2.0 | 0.00 | 0.00 | 0.00 | 43 | 1020.0 |
| 20260507151737 | 57 | 282 | 2.0 | 2.0 | 0.00 | 0.00 | 0.00 | 45 | 1020.0 |
| 20260507151236 | 57 | 239 | 2.0 | 4.0 | 0.00 | 0.00 | 0.00 | 43 | 1020.0 |
| 20260507150735 | 57 | 269 | 2.0 | 4.0 | 0.00 | 0.00 | 0.00 | 40 | 1020.0 |
| 20260507150236 | 57 | 269 | 2.0 | 5.0 | 0.00 | 0.00 | 0.00 | 42 | 1021.0 |
| 20260507145736 | 57 | 256 | 4.0 | 7.0 | 0.00 | 0.00 | 0.00 | 41 | 1020.0 |
| 20260507145236 | 56 | 288 | 2.0 | 4.0 | 0.00 | 0.00 | 0.00 | 43 | 1020.0 |
| 20260507144736 | 58 | 248 | 1.0 | 6.0 | 0.00 | 0.00 | 0.00 | 43 | 1021.0 |
| 20260507144235 | 55 | 218 | 1.0 | 2.0 | 0.00 | 0.00 | 0.00 | 54 | 1021.0 |
| 20260507143735 | 55 | 249 | 0.0 | 2.0 | 0.00 | 0.00 | 0.00 | 52 | 1021.0 |
| 20260507143236 | 56 | 274 | 3.0 | 5.0 | 0.00 | 0.00 | 0.00 | 50 | 1021.0 |
| 20260507142735 | 56 | 162 | 0.0 | 3.0 | 0.00 | 0.00 | 0.00 | 55 | 1021.0 |
| 20260507142236 | 57 | 269 | 0.0 | 3.0 | 0.00 | 0.00 | 0.00 | 52 | 1021.0 |
| 20260507141736 | 57 | 172 | 1.0 | 3.0 | 0.00 | 0.00 | 0.00 | 55 | 1021.0 |
| 20260507141236 | 56 | 145 | 0.0 | 3.0 | 0.00 | 0.00 | 0.00 | 58 | 1021.0 |
| 20260507140737 | 56 | 127 | 4.0 | 5.0 | 0.00 | 0.00 | 0.00 | 57 | 1021.0 |
| 20260507140236 | 55 | 291 | 0.0 | 2.0 | 0.00 | 0.00 | 0.00 | 55 | 1021.0 |
| 20260507135736 | 53 | 229 | 0.0 | 2.0 | 0.00 | 0.00 | 0.00 | 58 | 1021.0 |
| 20260507135235 | 53 | 204 | 1.0 | 2.0 | 0.00 | 0.00 | 0.00 | 61 | 1021.0 |
| 20260507134736 | 52 | 247 | 0.0 | 2.0 | 0.00 | 0.00 | 0.00 | 64 | 1021.0 |
| 20260507134235 | 51 | 255 | 1.0 | 1.0 | 0.00 | 0.00 | 0.00 | 65 | 1021.0 |
| 20260507133736 | 51 | 236 | 1.0 | 1.0 | 0.00 | 0.00 | 0.00 | 68 | 1021.0 |
| 20260507133236 | 49 | 258 | 0.0 | 3.0 | 0.00 | 0.00 | 0.00 | 68 | 1021.0 |
| 20260507132735 | 49 | 261 | 0.0 | 2.0 | 0.00 | 0.00 | 0.00 | 70 | 1021.0 |
| 20260507132236 | 48 | 297 | 1.0 | 2.0 | 0.00 | 0.00 | 0.00 | 75 | 1021.0 |
| 20260507131735 | 47 | 257 | 1.0 | 3.0 | 0.00 | 0.00 | 0.00 | 78 | 1021.0 |
| 20260507131236 | 46 | 255 | 0.0 | 2.0 | 0.00 | 0.00 | 0.00 | 79 | 1021.0 |
| 20260507130736 | 46 | 259 | 2.0 | 2.0 | 0.00 | 0.00 | 0.00 | 82 | 1021.0 |
| 20260507130236 | 46 | 269 | 0.0 | 2.0 | 0.00 | 0.00 | 0.00 | 85 | 1021.0 |
| 20260507125736 | 45 | 244 | 0.0 | 2.0 | 0.00 | 0.00 | 0.00 | 85 | 1021.0 |
| 20260507125236 | 45 | 252 | 2.0 | 2.0 | 0.00 | 0.00 | 0.00 | 89 | 1021.0 |
| 20260507124735 | 44 | 251 | 1.0 | 2.0 | 0.00 | 0.00 | 0.00 | 89 | 1021.0 |
| 20260507124236 | 44 | 291 | 0.0 | 2.0 | 0.00 | 0.00 | 0.00 | 90 | 1021.0 |
| 20260507123735 | 43 | 241 | 0.0 | 1.0 | 0.00 | 0.00 | 0.00 | 90 | 1021.0 |
| 20260507123236 | 43 | 266 | 0.0 | 2.0 | 0.00 | 0.00 | 0.00 | 93 | 1020.0 |
| 20260507122735 | 42 | 238 | 0.0 | 2.0 | 0.00 | 0.00 | 0.00 | 94 | 1021.0 |
| 20260507122236 | 42 | 286 | 0.0 | 2.0 | 0.00 | 0.00 | 0.00 | 95 | 1021.0 |
| 20260507121736 | 42 | 309 | 0.0 | 2.0 | 0.00 | 0.00 | 0.00 | 95 | 1020.0 |
| 20260507121236 | 42 | 239 | 0.0 | 1.0 | 0.00 | 0.00 | 0.00 | 95 | 1020.0 |
| 20260507120736 | 41 | 241 | 1.0 | 1.0 | 0.00 | 0.00 | 0.00 | 96 | 1020.0 |
| 20260507120238 | 41 | 283 | 0.0 | 1.0 | 0.00 | 0.00 | 0.00 | 95 | 1020.0 |
| 20260507115738 | 41 | 269 | 0.0 | 0.0 | 0.00 | 0.00 | 0.00 | 95 | 1020.0 |
| 20260507115236 | 41 | 129 | 0.0 | 0.0 | 0.00 | 0.00 | 0.00 | 95 | 1020.0 |
| 20260507114736 | 40 | 129 | 0.0 | 0.0 | 0.00 | 0.00 | 0.00 | 95 | 1020.0 |
| 20260507114235 | 40 | 129 | 0.0 | 0.0 | 0.00 | 0.00 | 0.00 | 95 | 1020.0 |
| 20260507113739 | 40 | 230 | 0.0 | 0.0 | 0.00 | 0.00 | 0.00 | 95 | 1020.0 |
| 20260507113236 | 40 | 230 | 0.0 | 0.0 | 0.00 | 0.00 | 0.00 | 95 | 1020.0 |
| 20260507112736 | 39 | 113 | 0.0 | 0.0 | 0.00 | 0.00 | 0.00 | 95 | 1020.0 |
| 20260507112237 | 39 | 113 | 0.0 | 0.0 | 0.00 | 0.00 | 0.00 | 95 | 1020.0 |
| 20260507111736 | 39 | 113 | 0.0 | 0.0 | 0.00 | 0.00 | 0.00 | 95 | 1020.0 |
| 20260507111235 | 39 | 84 | 0.0 | 0.0 | 0.00 | 0.00 | 0.00 | 95 | 1020.0 |
| 20260507110736 | 39 | 50 | 0.0 | 0.0 | 0.00 | 0.00 | 0.00 | 95 | 1020.0 |
| 20260507110235 | 39 | 50 | 0.0 | 0.0 | 0.00 | 0.00 | 0.00 | 95 | 1020.0 |
| 20260507105736 | 39 | 103 | 0.0 | 0.0 | 0.00 | 0.00 | 0.00 | 95 | 1020.0 |
| 20260507105241 | 39 | 60 | 0.0 | 0.0 | 0.00 | 0.00 | 0.00 | 94 | 1020.0 |
| 20260507104735 | 39 | 60 | 0.0 | 0.0 | 0.00 | 0.00 | 0.00 | 95 | 1020.0 |
| 20260507104235 | 40 | 309 | 0.0 | 0.0 | 0.00 | 0.00 | 0.00 | 95 | 1020.0 |
| 20260507103735 | 40 | 309 | 0.0 | 0.0 | 0.00 | 0.00 | 0.00 | 95 | 1020.0 |
| 20260507103235 | 40 | 44 | 0.0 | 0.0 | 0.00 | 0.00 | 0.00 | 95 | 1020.0 |
| 20260507102736 | 40 | 37 | 0.0 | 0.0 | 0.00 | 0.00 | 0.00 | 95 | 1020.0 |
| 20260507102235 | 40 | 37 | 0.0 | 0.0 | 0.00 | 0.00 | 0.00 | 95 | 1019.0 |
| 20260507101735 | 40 | 135 | 0.0 | 0.0 | 0.00 | 0.00 | 0.00 | 95 | 1020.0 |
| 20260507101236 | 41 | 129 | 0.0 | 0.0 | 0.00 | 0.00 | 0.00 | 95 | 1019.0 |
| 20260507100736 | 41 | 50 | 0.0 | 0.0 | 0.00 | 0.00 | 0.00 | 95 | 1020.0 |
| 20260507100235 | 41 | 130 | 0.0 | 0.0 | 0.00 | 0.00 | 0.00 | 95 | 1020.0 |
| 20260507095738 | 41 | 89 | 0.0 | 0.0 | 0.00 | 0.00 | 0.00 | 95 | 1020.0 |
| 20260507095235 | 41 | 89 | 0.0 | 0.0 | 0.00 | 0.00 | 0.00 | 95 | 1019.0 |
| 20260507094736 | 41 | 55 | 0.0 | 0.0 | 0.00 | 0.00 | 0.00 | 94 | 1019.0 |
| 20260507094235 | 41 | 37 | 0.0 | 0.0 | 0.00 | 0.00 | 0.00 | 94 | 1019.0 |
| 20260507093735 | 41 | 55 | 0.0 | 0.0 | 0.00 | 0.00 | 0.00 | 94 | 1019.0 |
| 20260507093235 | 40 | 119 | 0.0 | 0.0 | 0.00 | 0.00 | 0.00 | 94 | 1019.0 |
| 20260507092735 | 40 | 124 | 0.0 | 0.0 | 0.00 | 0.00 | 0.00 | 94 | 1020.0 |
| 20260507092235 | 40 | 103 | 0.0 | 0.0 | 0.00 | 0.00 | 0.00 | 94 | 1019.0 |
| 20260507091735 | 40 | 309 | 0.0 | 0.0 | 0.00 | 0.00 | 0.00 | 94 | 1019.0 |
| 20260507091237 | 40 | 145 | 0.0 | 0.0 | 0.00 | 0.00 | 0.00 | 94 | 1019.0 |
| 20260507090736 | 40 | 113 | 0.0 | 0.0 | 0.00 | 0.00 | 0.00 | 94 | 1020.0 |
| 20260507090236 | 40 | 141 | 0.0 | 0.0 | 0.00 | 0.00 | 0.00 | 94 | 1019.0 |
| 20260507085735 | 40 | 65 | 0.0 | 0.0 | 0.00 | 0.00 | 0.00 | 93 | 1020.0 |
| 20260507085236 | 40 | 141 | 0.0 | 0.0 | 0.00 | 0.00 | 0.00 | 93 | 1020.0 |
| 20260507084737 | 40 | 142 | 0.0 | 0.0 | 0.00 | 0.00 | 0.00 | 93 | 1020.0 |
| 20260507084235 | 40 | 135 | 0.0 | 0.0 | 0.00 | 0.00 | 0.00 | 93 | 1020.0 |
| 20260507083736 | 40 | 113 | 0.0 | 0.0 | 0.00 | 0.00 | 0.00 | 93 | 1020.0 |
| 20260507083235 | 40 | 129 | 0.0 | 0.0 | 0.00 | 0.00 | 0.00 | 93 | 1020.0 |
| 20260507082735 | 40 | 124 | 0.0 | 0.0 | 0.00 | 0.00 | 0.00 | 93 | 1020.0 |
| 20260507082236 | 40 | 145 | 0.0 | 0.0 | 0.00 | 0.00 | 0.00 | 93 | 1020.0 |
| 20260507081736 | 40 | 124 | 0.0 | 1.0 | 0.00 | 0.00 | 0.00 | 93 | 1020.0 |
| 20260507081235 | 40 | 129 | 0.0 | 0.0 | 0.00 | 0.00 | 0.00 | 93 | 1020.0 |
| 20260507080737 | 40 | 34 | 0.0 | 0.0 | 0.00 | 0.00 | 0.00 | 92 | 1020.0 |
| 20260507080235 | 40 | 34 | 0.0 | 0.0 | 0.00 | 0.00 | 0.00 | 92 | 1020.0 |
| 20260507075735 | 40 | 44 | 0.0 | 0.0 | 0.00 | 0.00 | 0.00 | 92 | 1020.0 |
| 20260507075238 | 41 | 142 | 0.0 | 0.0 | 0.00 | 0.00 | 0.00 | 92 | 1020.0 |
| 20260507074736 | 41 | 135 | 0.0 | 0.0 | 0.00 | 0.00 | 0.00 | 92 | 1020.0 |
| 20260507074236 | 41 | 135 | 0.0 | 0.0 | 0.00 | 0.00 | 0.00 | 92 | 1020.0 |
| 20260507073736 | 41 | 129 | 0.0 | 0.0 | 0.00 | 0.00 | 0.00 | 92 | 1020.0 |
| 20260507073235 | 41 | 129 | 0.0 | 0.0 | 0.00 | 0.00 | 0.00 | 92 | 1019.0 |
| 20260507072735 | 41 | 129 | 0.0 | 0.0 | 0.00 | 0.00 | 0.00 | 92 | 1020.0 |
| 20260507072236 | 41 | 129 | 0.0 | 0.0 | 0.00 | 0.00 | 0.00 | 91 | 1020.0 |
| 20260507071736 | 41 | 129 | 0.0 | 0.0 | 0.00 | 0.00 | 0.00 | 91 | 1019.0 |
| 20260507071235 | 41 | 315 | 0.0 | 0.0 | 0.00 | 0.00 | 0.00 | 91 | 1019.0 |
| 20260507070736 | 41 | 129 | 0.0 | 0.0 | 0.00 | 0.00 | 0.00 | 90 | 1019.0 |
| 20260507070236 | 41 | 44 | 0.0 | 0.0 | 0.00 | 0.00 | 0.00 | 90 | 1020.0 |
| 20260507065736 | 41 | 142 | 0.0 | 0.0 | 0.00 | 0.00 | 0.00 | 90 | 1019.0 |
| 20260507065238 | 42 | 142 | 0.0 | 0.0 | 0.00 | 0.00 | 0.00 | 90 | 1020.0 |
| 20260507064735 | 42 | 55 | 0.0 | 0.0 | 0.00 | 0.00 | 0.00 | 90 | 1020.0 |
| 20260507064235 | 42 | 309 | 0.0 | 0.0 | 0.00 | 0.00 | 0.00 | 90 | 1020.0 |
| 20260507063736 | 42 | 102 | 0.0 | 0.0 | 0.00 | 0.00 | 0.00 | 89 | 1020.0 |
| 20260507063236 | 42 | 102 | 0.0 | 0.0 | 0.00 | 0.00 | 0.00 | 88 | 1020.0 |
| 20260507062736 | 42 | 102 | 0.0 | 0.0 | 0.00 | 0.00 | 0.00 | 88 | 1020.0 |
| 20260507062236 | 42 | 102 | 0.0 | 0.0 | 0.00 | 0.00 | 0.00 | 87 | 1020.0 |
| 20260507061739 | 42 | 322 | 0.0 | 0.0 | 0.00 | 0.00 | 0.00 | 87 | 1020.0 |
| 20260507061236 | 43 | 322 | 0.0 | 0.0 | 0.00 | 0.00 | 0.00 | 87 | 1020.0 |
| 20260507060736 | 43 | 34 | 0.0 | 0.0 | 0.00 | 0.00 | 0.00 | 87 | 1020.0 |
| 20260507060236 | 43 | 322 | 0.0 | 0.0 | 0.00 | 0.00 | 0.00 | 86 | 1020.0 |
| 20260507055736 | 43 | 103 | 0.0 | 0.0 | 0.00 | 0.00 | 0.00 | 86 | 1020.0 |
| 20260507055237 | 44 | 37 | 0.0 | 0.0 | 0.00 | 0.00 | 0.00 | 86 | 1020.0 |
| 20260507054736 | 44 | 304 | 0.0 | 0.0 | 0.00 | 0.00 | 0.00 | 84 | 1020.0 |
| 20260507054235 | 44 | 113 | 0.0 | 0.0 | 0.00 | 0.00 | 0.00 | 82 | 1020.0 |
| 20260507053739 | 44 | 102 | 0.0 | 0.0 | 0.00 | 0.00 | 0.00 | 81 | 1020.0 |
| 20260507053235 | 44 | 102 | 0.0 | 0.0 | 0.00 | 0.00 | 0.00 | 80 | 1020.0 |
| 20260507052735 | 44 | 269 | 0.0 | 0.0 | 0.00 | 0.00 | 0.00 | 80 | 1020.0 |
| 20260507052236 | 45 | 217 | 0.0 | 0.0 | 0.00 | 0.00 | 0.00 | 79 | 1020.0 |
| 20260507051735 | 45 | 217 | 0.0 | 0.0 | 0.00 | 0.00 | 0.00 | 77 | 1020.0 |
| 20260507051236 | 45 | 217 | 0.0 | 0.0 | 0.00 | 0.00 | 0.00 | 76 | 1020.0 |
| 20260507050736 | 45 | 217 | 0.0 | 0.0 | 0.00 | 0.00 | 0.00 | 76 | 1019.0 |
| 20260507050235 | 46 | 297 | 0.0 | 0.0 | 0.00 | 0.00 | 0.00 | 76 | 1019.0 |
| 20260507045736 | 46 | 66 | 0.0 | 0.0 | 0.00 | 0.00 | 0.00 | 75 | 1019.0 |
| 20260507045235 | 46 | 66 | 0.0 | 0.0 | 0.00 | 0.00 | 0.00 | 74 | 1019.0 |
| 20260507044735 | 46 | 157 | 0.0 | 0.0 | 0.00 | 0.00 | 0.00 | 74 | 1019.0 |
| 20260507044236 | 46 | 142 | 0.0 | 0.0 | 0.00 | 0.00 | 0.00 | 73 | 1019.0 |
| 20260507043736 | 47 | 287 | 0.0 | 0.0 | 0.00 | 0.00 | 0.00 | 72 | 1019.0 |
| 20260507043237 | 47 | 304 | 0.0 | 0.0 | 0.00 | 0.00 | 0.00 | 73 | 1019.0 |
| 20260507042736 | 48 | 322 | 0.0 | 0.0 | 0.00 | 0.00 | 0.00 | 73 | 1019.0 |
| 20260507042236 | 48 | 230 | 0.0 | 0.0 | 0.00 | 0.00 | 0.00 | 71 | 1019.0 |
| 20260507041736 | 48 | 32 | 0.0 | 0.0 | 0.00 | 0.00 | 0.00 | 69 | 1019.0 |
| 20260507041238 | 49 | 32 | 0.0 | 0.0 | 0.00 | 0.00 | 0.00 | 65 | 1019.0 |
| 20260507040735 | 49 | 32 | 0.0 | 0.0 | 0.00 | 0.00 | 0.00 | 62 | 1019.0 |
| 20260507040235 | 49 | 37 | 0.0 | 0.0 | 0.00 | 0.00 | 0.00 | 61 | 1019.0 |
| 20260507035739 | 49 | 37 | 0.0 | 2.0 | 0.00 | 0.00 | 0.00 | 61 | 1019.0 |
| 20260507035235 | 50 | 51 | 1.0 | 2.0 | 0.00 | 0.00 | 0.00 | 60 | 1019.0 |
| 20260507034736 | 50 | 37 | 0.0 | 1.0 | 0.00 | 0.00 | 0.00 | 59 | 1019.0 |
| 20260507034236 | 50 | 322 | 0.0 | 1.0 | 0.00 | 0.00 | 0.00 | 58 | 1019.0 |
| 20260507033736 | 50 | 48 | 0.0 | 0.0 | 0.00 | 0.00 | 0.00 | 58 | 1019.0 |
| 20260507033237 | 50 | 25 | 0.0 | 0.0 | 0.00 | 0.00 | 0.00 | 58 | 1019.0 |
| 20260507032736 | 50 | 35 | 0.0 | 1.0 | 0.00 | 0.00 | 0.00 | 58 | 1019.0 |
| 20260507032235 | 50 | 0 | 0.0 | 1.0 | 0.00 | 0.00 | 0.00 | 58 | 1019.0 |
| 20260507031736 | 50 | 44 | 0.0 | 1.0 | 0.00 | 0.00 | 0.00 | 58 | 1019.0 |
| 20260507031235 | 50 | 20 | 1.0 | 2.0 | 0.00 | 0.00 | 0.00 | 59 | 1019.0 |
| 20260507030735 | 50 | 44 | 0.0 | 1.0 | 0.00 | 0.00 | 0.00 | 59 | 1019.0 |
| 20260507030235 | 50 | 24 | 0.0 | 1.0 | 0.00 | 0.00 | 0.00 | 60 | 1019.0 |
| 20260507025736 | 50 | 348 | 1.0 | 1.0 | 0.00 | 0.00 | 0.00 | 60 | 1019.0 |
| 20260507025236 | 50 | 345 | 0.0 | 1.0 | 0.00 | 0.00 | 0.00 | 62 | 1019.0 |
| 20260507024736 | 51 | 336 | 0.0 | 2.0 | 0.00 | 0.00 | 0.00 | 63 | 1019.0 |
| 20260507024235 | 51 | 331 | 0.0 | 1.0 | 0.00 | 0.00 | 0.00 | 61 | 1019.0 |
| 20260507023735 | 51 | 23 | 0.0 | 1.0 | 0.00 | 0.00 | 0.00 | 62 | 1019.0 |
| 20260507023235 | 51 | 6 | 0.0 | 1.0 | 0.00 | 0.00 | 0.00 | 63 | 1019.0 |
| 20260507022735 | 51 | 356 | 1.0 | 1.0 | 0.00 | 0.00 | 0.00 | 63 | 1019.0 |
| 20260507022237 | 51 | 333 | 0.0 | 1.0 | 0.00 | 0.00 | 0.00 | 63 | 1019.0 |
| 20260507021736 | 51 | 14 | 0.0 | 1.0 | 0.00 | 0.00 | 0.00 | 62 | 1019.0 |
| 20260507021235 | 51 | 31 | 0.0 | 1.0 | 0.00 | 0.00 | 0.00 | 63 | 1019.0 |
| 20260507020735 | 52 | 9 | 0.0 | 2.0 | 0.00 | 0.00 | 0.00 | 61 | 1019.0 |
| 20260507020236 | 53 | 42 | 0.0 | 1.0 | 0.00 | 0.00 | 0.00 | 58 | 1019.0 |
| 20260507015736 | 53 | 32 | 0.0 | 1.0 | 0.00 | 0.00 | 0.00 | 55 | 1019.0 |
| 20260507015236 | 53 | 25 | 0.0 | 0.0 | 0.00 | 0.00 | 0.00 | 54 | 1019.0 |
| 20260507014736 | 53 | 315 | 0.0 | 0.0 | 0.00 | 0.00 | 0.00 | 53 | 1018.0 |
| 20260507014236 | 54 | 315 | 0.0 | 0.0 | 0.00 | 0.00 | 0.00 | 53 | 1018.0 |
| 20260507013735 | 54 | 30 | 0.0 | 1.0 | 0.00 | 0.00 | 0.00 | 52 | 1018.0 |
| 20260507013235 | 54 | 333 | 0.0 | 1.0 | 0.00 | 0.00 | 0.00 | 52 | 1018.0 |
| 20260507012736 | 55 | 323 | 0.0 | 1.0 | 0.00 | 0.00 | 0.00 | 51 | 1018.0 |
| 20260507012236 | 55 | 23 | 0.0 | 1.0 | 0.00 | 0.00 | 0.00 | 50 | 1018.0 |
| 20260507011735 | 55 | 341 | 1.0 | 1.0 | 0.00 | 0.00 | 0.00 | 49 | 1018.0 |
| 20260507011235 | 56 | 44 | 0.0 | 0.0 | 0.00 | 0.00 | 0.00 | 48 | 1018.0 |
| 20260507010736 | 56 | 343 | 0.0 | 2.0 | 0.00 | 0.00 | 0.00 | 47 | 1018.0 |
| 20260507010236 | 56 | 17 | 0.0 | 0.0 | 0.00 | 0.00 | 0.00 | 47 | 1018.0 |
| 20260507005735 | 56 | 321 | 0.0 | 2.0 | 0.00 | 0.00 | 0.00 | 46 | 1018.0 |
| 20260507005235 | 56 | 327 | 0.0 | 2.0 | 0.00 | 0.00 | 0.00 | 47 | 1018.0 |
| 20260507004736 | 57 | 25 | 0.0 | 2.0 | 0.00 | 0.00 | 0.00 | 49 | 1018.0 |
| 20260507004236 | 57 | 336 | 2.0 | 3.0 | 0.00 | 0.00 | 0.00 | 49 | 1017.0 |
| 20260507003736 | 58 | 15 | 0.0 | 2.0 | 0.00 | 0.00 | 0.00 | 45 | 1018.0 |
| 20260507003236 | 58 | 4 | 1.0 | 2.0 | 0.00 | 0.00 | 0.00 | 43 | 1018.0 |
| 20260507002736 | 58 | 309 | 2.0 | 4.0 | 0.00 | 0.00 | 0.00 | 42 | 1017.0 |
| 20260507002236 | 58 | 315 | 3.0 | 3.0 | 0.00 | 0.00 | 0.00 | 44 | 1018.0 |
| 20260507001735 | 59 | 324 | 2.0 | 4.0 | 0.00 | 0.00 | 0.00 | 43 | 1018.0 |
| 20260507001236 | 59 | 32 | 0.0 | 4.0 | 0.00 | 0.00 | 0.00 | 44 | 1018.0 |
| 20260507000736 | 59 | 321 | 3.0 | 4.0 | 0.00 | 0.00 | 0.00 | 42 | 1018.0 |
| 20260507000236 | 59 | 77 | 0.0 | 3.0 | 0.00 | 0.00 | 0.00 | 46 | 1018.0 |
| 20260506235736 | 59 | 5 | 0.0 | 3.0 | 0.00 | 0.00 | 0.00 | 46 | 1017.0 |
| 20260506235236 | 59 | 255 | 4.0 | 5.0 | 0.00 | 0.00 | 0.00 | 44 | 1018.0 |
| 20260506234735 | 60 | 356 | 2.0 | 3.0 | 0.00 | 0.00 | 0.00 | 43 | 1018.0 |
| 20260506234236 | 59 | 279 | 2.0 | 4.0 | 0.00 | 0.00 | 0.00 | 42 | 1018.0 |
| 20260506233736 | 59 | 297 | 2.0 | 4.0 | 0.00 | 0.00 | 0.00 | 45 | 1018.0 |
| 20260506233235 | 59 | 305 | 2.0 | 5.0 | 0.00 | 0.00 | 0.00 | 43 | 1018.0 |
| 20260506232736 | 59 | 317 | 3.0 | 3.0 | 0.00 | 0.00 | 0.00 | 43 | 1018.0 |
| 20260506232236 | 60 | 298 | 3.0 | 4.0 | 0.00 | 0.00 | 0.00 | 44 | 1018.0 |
| 20260506231736 | 59 | 326 | 2.0 | 4.0 | 0.00 | 0.00 | 0.00 | 42 | 1018.0 |
| 20260506231236 | 59 | 282 | 3.0 | 5.0 | 0.00 | 0.00 | 0.00 | 41 | 1018.0 |
| 20260506230735 | 59 | 334 | 2.0 | 6.0 | 0.00 | 0.00 | 0.00 | 43 | 1018.0 |
| 20260506230237 | 60 | 328 | 5.0 | 5.0 | 0.00 | 0.00 | 0.00 | 41 | 1018.0 |
| 20260506225735 | 60 | 320 | 4.0 | 4.0 | 0.00 | 0.00 | 0.00 | 40 | 1018.0 |
| 20260506225235 | 60 | 6 | 1.0 | 3.0 | 0.00 | 0.00 | 0.00 | 41 | 1018.0 |
| 20260506224735 | 60 | 286 | 2.0 | 4.0 | 0.00 | 0.00 | 0.00 | 41 | 1017.0 |
| 20260506224236 | 60 | 347 | 0.0 | 4.0 | 0.00 | 0.00 | 0.00 | 40 | 1018.0 |
| 20260506223735 | 60 | 323 | 5.0 | 6.0 | 0.00 | 0.00 | 0.00 | 42 | 1018.0 |
| 20260506223236 | 60 | 305 | 4.0 | 5.0 | 0.00 | 0.00 | 0.00 | 41 | 1018.0 |
| 20260506222735 | 61 | 305 | 2.0 | 4.0 | 0.00 | 0.00 | 0.00 | 40 | 1018.0 |
| 20260506222237 | 60 | 251 | 2.0 | 5.0 | 0.00 | 0.00 | 0.00 | 40 | 1018.0 |
| 20260506221736 | 59 | 290 | 3.0 | 5.0 | 0.00 | 0.00 | 0.00 | 42 | 1018.0 |
| 20260506221235 | 60 | 328 | 3.0 | 6.0 | 0.00 | 0.00 | 0.00 | 40 | 1018.0 |
| 20260506220736 | 60 | 271 | 3.0 | 3.0 | 0.00 | 0.00 | 0.00 | 43 | 1018.0 |
| 20260506220236 | 61 | 299 | 0.0 | 4.0 | 0.00 | 0.00 | 0.00 | 38 | 1018.0 |
| 20260506215735 | 62 | 211 | 1.0 | 3.0 | 0.00 | 0.00 | 0.00 | 39 | 1018.0 |
| 20260506215235 | 61 | 276 | 4.0 | 5.0 | 0.00 | 0.00 | 0.00 | 40 | 1018.0 |
| 20260506214735 | 61 | 286 | 4.0 | 5.0 | 0.00 | 0.00 | 0.00 | 39 | 1018.0 |
| 20260506214235 | 61 | 0 | 1.0 | 3.0 | 0.00 | 0.00 | 0.00 | 38 | 1018.0 |
| 20260506213735 | 61 | 331 | 5.0 | 5.0 | 0.00 | 0.00 | 0.00 | 43 | 1018.0 |
| 20260506213236 | 60 | 286 | 3.0 | 4.0 | 0.00 | 0.00 | 0.00 | 42 | 1018.0 |
| 20260506212735 | 59 | 301 | 5.0 | 5.0 | 0.00 | 0.00 | 0.00 | 44 | 1018.0 |
| 20260506212235 | 60 | 312 | 2.0 | 5.0 | 0.00 | 0.00 | 0.00 | 40 | 1018.0 |
| 20260506211736 | 61 | 312 | 3.0 | 5.0 | 0.00 | 0.00 | 0.00 | 39 | 1018.0 |
| 20260506211236 | 58 | 335 | 2.0 | 2.0 | 0.00 | 0.00 | 0.00 | 42 | 1018.0 |
| 20260506210735 | 59 | 288 | 2.0 | 4.0 | 0.00 | 0.00 | 0.00 | 42 | 1018.0 |
| 20260506210236 | 59 | 333 | 5.0 | 6.0 | 0.00 | 0.00 | 0.00 | 43 | 1018.0 |
| 20260506205738 | 60 | 319 | 3.0 | 6.0 | 0.00 | 0.00 | 0.00 | 40 | 1018.0 |
| 20260506205235 | 62 | 14 | 3.0 | 4.0 | 0.00 | 0.00 | 0.00 | 40 | 1018.0 |
| 20260506204736 | 60 | 226 | 2.0 | 3.0 | 0.00 | 0.00 | 0.00 | 39 | 1018.0 |
| 20260506204236 | 61 | 279 | 3.0 | 5.0 | 0.00 | 0.00 | 0.00 | 39 | 1018.0 |
| 20260506203735 | 61 | 304 | 3.0 | 5.0 | 0.00 | 0.00 | 0.00 | 45 | 1018.0 |
| 20260506203235 | 59 | 351 | 1.0 | 5.0 | 0.00 | 0.00 | 0.00 | 41 | 1018.0 |
| 20260506202736 | 60 | 335 | 2.0 | 6.0 | 0.00 | 0.00 | 0.00 | 42 | 1019.0 |
| 20260506202236 | 61 | 6 | 3.0 | 6.0 | 0.00 | 0.00 | 0.00 | 41 | 1019.0 |
| 20260506201735 | 60 | 287 | 3.0 | 5.0 | 0.00 | 0.00 | 0.00 | 41 | 1019.0 |
| 20260506201236 | 60 | 309 | 5.0 | 6.0 | 0.00 | 0.00 | 0.00 | 44 | 1019.0 |
| 20260506200735 | 61 | 337 | 6.0 | 8.0 | 0.00 | 0.00 | 0.00 | 39 | 1019.0 |
| 20260506200235 | 60 | 272 | 2.0 | 4.0 | 0.00 | 0.00 | 0.00 | 43 | 1019.0 |
| 20260506195735 | 60 | 272 | 4.0 | 5.0 | 0.00 | 0.00 | 0.00 | 39 | 1019.0 |
| 20260506195235 | 61 | 7 | 1.0 | 7.0 | 0.00 | 0.00 | 0.00 | 40 | 1019.0 |
| 20260506194736 | 60 | 332 | 2.0 | 6.0 | 0.00 | 0.00 | 0.00 | 38 | 1019.0 |
| 20260506194238 | 60 | 333 | 5.0 | 5.0 | 0.00 | 0.00 | 0.00 | 39 | 1019.0 |
| 20260506193735 | 60 | 55 | 0.0 | 6.0 | 0.00 | 0.00 | 0.00 | 39 | 1019.0 |
| 20260506193235 | 60 | 276 | 3.0 | 6.0 | 0.00 | 0.00 | 0.00 | 38 | 1019.0 |
| 20260506192735 | 60 | 282 | 7.0 | 8.0 | 0.00 | 0.00 | 0.00 | 38 | 1019.0 |
| 20260506192236 | 59 | 297 | 3.0 | 5.0 | 0.00 | 0.00 | 0.00 | 42 | 1019.0 |
| 20260506191735 | 59 | 17 | 1.0 | 5.0 | 0.00 | 0.00 | 0.00 | 42 | 1019.0 |
| 20260506191236 | 60 | 277 | 3.0 | 6.0 | 0.00 | 0.00 | 0.00 | 45 | 1019.0 |
| 20260506190735 | 59 | 344 | 3.0 | 6.0 | 0.00 | 0.00 | 0.00 | 45 | 1019.0 |
| 20260506190235 | 60 | 50 | 5.0 | 8.0 | 0.00 | 0.00 | 0.00 | 44 | 1019.0 |
| 20260506185736 | 59 | 54 | 2.0 | 5.0 | 0.00 | 0.00 | 0.00 | 41 | 1019.0 |
| 20260506185236 | 59 | 297 | 3.0 | 5.0 | 0.00 | 0.00 | 0.00 | 44 | 1019.0 |
| 20260506184735 | 59 | 64 | 2.0 | 6.0 | 0.00 | 0.00 | 0.00 | 45 | 1019.0 |
| 20260506184236 | 58 | 347 | 2.0 | 3.0 | 0.00 | 0.00 | 0.00 | 43 | 1018.0 |